Theta_e
358 358 356 355 355 354 353 352 352 352 349 344 342 342 343 346 346 346 347 349 349 346 343 342 341 337 336 337 336 336 336 335 335 335 335 335 335 335 335 335 335 335 335 334 332 332 332 333 332 332 331 329 329 328 328 329 330 330 330 329 329 329 329 329 328 328 328 327 325 322 321 323 325 324
359 358 357 356 356 355 354 354 353 354 353 348 345 342 342 343 344 346 347 347 348 346 344 342 341 338 337 338 338 338 338 337 336 335 335 335 335 335 335 335 335 335 335 335 334 334 334 334 334 334 334 333 332 331 330 331 331 332 332 331 331 330 330 329 329 329 328 328 326 323 321 323 325 325
358 356 356 357 356 355 355 355 355 355 355 353 349 346 343 342 343 346 347 346 347 346 344 343 342 339 338 339 339 340 340 339 338 337 336 336 336 336 335 336 336 335 335 335 335 335 335 335 335 335 335 335 334 334 333 333 333 333 333 333 333 332 331 331 330 330 329 328 327 324 321 322 325 325
357 354 354 355 354 355 356 356 356 356 356 355 354 351 347 343 342 345 346 347 347 346 344 342 343 342 341 340 339 339 340 340 339 339 339 338 337 337 336 336 336 336 336 335 335 335 335 335 335 335 335 335 335 336 335 334 334 334 334 334 334 334 333 332 332 331 330 328 327 325 322 322 324 325
357 356 355 353 352 353 355 356 356 356 356 356 355 353 350 347 345 345 346 347 347 347 345 341 340 340 339 339 338 338 339 340 340 340 340 339 339 339 338 338 338 337 337 337 336 336 335 335 335 335 335 335 336 336 336 335 335 334 334 334 334 335 334 334 333 332 330 329 327 326 323 322 324 325
358 358 358 356 355 354 354 355 356 356 355 355 354 353 352 351 349 347 347 347 348 348 347 345 341 339 338 338 338 338 339 340 340 340 340 340 340 340 340 340 339 340 340 339 338 338 337 336 336 336 336 335 336 336 336 336 335 335 335 334 335 335 335 335 334 333 331 329 328 327 324 322 323 325
357 357 358 358 358 357 356 355 355 355 355 354 354 353 353 352 351 350 349 348 348 348 349 348 347 344 343 342 340 340 340 340 340 340 340 340 340 340 340 340 340 340 340 340 340 340 339 338 337 337 336 336 336 335 336 336 336 336 335 335 335 335 335 336 335 334 333 329 327 328 327 323 323 325
357 358 358 358 358 358 358 356 356 356 355 355 354 354 353 353 352 352 351 349 348 348 349 349 348 348 347 345 344 343 343 342 342 341 341 341 341 341 340 340 341 341 340 340 340 340 340 340 339 338 338 337 336 336 335 335 336 336 336 335 335 335 335 336 336 335 334 331 328 328 329 326 323 325
356 357 358 359 358 358 358 358 358 358 357 355 354 354 354 353 352 352 351 351 349 348 349 350 349 349 348 347 346 345 345 344 344 344 343 343 343 342 342 342 341 341 341 340 341 340 340 340 339 339 338 338 337 337 336 335 335 336 336 336 336 335 336 336 336 336 335 332 328 327 330 328 325 325
355 355 356 358 358 358 358 359 359 358 358 357 356 355 354 353 353 352 352 351 350 349 349 350 350 350 350 349 348 347 347 346 345 345 345 345 345 345 344 344 343 343 342 342 342 341 341 340 340 339 339 338 338 338 337 336 336 336 336 337 336 336 336 336 336 336 336 334 329 327 330 330 327 326
357 356 357 357 358 357 357 358 358 358 358 358 357 356 355 355 354 354 353 352 351 351 351 351 351 351 351 350 349 348 347 346 345 345 345 346 346 345 345 346 345 344 343 343 343 343 342 341 340 340 339 339 338 338 338 338 337 336 336 336 337 336 336 336 336 336 336 335 331 327 330 331 329 328
357 357 358 359 358 357 356 355 356 357 358 358 358 357 357 356 356 355 354 354 353 353 352 352 352 351 352 351 350 349 348 346 347 346 346 346 346 345 346 346 346 344 343 343 344 344 343 342 341 341 340 339 339 338 338 337 337 337 336 336 336 337 336 336 336 336 335 336 332 328 329 331 331 329
357 357 358 358 358 357 355 353 353 354 356 356 357 358 358 357 356 356 355 355 355 354 354 354 353 353 352 351 350 349 349 349 349 348 348 348 347 346 346 345 345 345 344 344 344 344 344 343 343 342 341 341 341 340 338 338 337 337 337 337 336 336 337 336 336 336 335 335 333 328 328 331 331 331
358 358 358 358 356 355 353 352 351 352 354 354 355 356 357 357 357 357 356 356 355 355 355 355 354 353 353 352 350 350 350 350 349 348 348 348 347 347 347 347 346 346 346 346 345 346 345 344 344 344 343 343 343 342 341 340 339 338 337 337 336 336 337 337 337 337 336 335 334 330 328 330 332 332
358 358 359 358 357 355 353 352 352 352 352 353 354 354 355 356 356 357 356 356 357 356 356 356 355 355 354 353 351 351 351 350 349 348 348 348 347 347 348 348 348 348 347 346 345 346 346 344 344 344 343 344 343 343 344 343 343 342 339 338 337 337 337 337 336 337 337 336 334 331 329 330 331 333
358 359 359 359 359 358 356 355 355 354 354 354 354 354 355 355 356 356 357 357 357 357 357 357 357 356 355 354 354 353 352 351 350 349 349 348 348 348 348 348 349 348 347 346 345 346 346 345 344 344 344 344 344 344 345 345 344 343 342 340 339 337 337 337 337 337 337 337 335 332 330 330 331 333
359 359 359 359 359 359 358 356 356 356 356 356 356 356 356 356 356 356 356 357 357 357 357 356 356 356 356 355 355 354 353 352 352 351 350 349 349 348 348 348 348 348 347 346 345 346 346 346 345 345 345 345 345 345 345 345 344 343 343 342 341 339 338 337 337 337 337 337 336 334 331 330 330 332
359 359 360 359 359 359 359 359 358 358 358 358 359 359 358 358 357 357 357 357 357 356 356 356 355 356 355 355 354 354 354 353 353 352 351 350 349 349 349 349 348 348 347 345 345 346 346 346 346 346 346 346 346 345 345 345 344 343 343 343 342 341 340 338 337 338 338 338 337 335 333 332 331 332
359 359 359 359 359 360 360 359 359 359 359 360 360 360 359 359 359 359 358 358 358 358 357 356 355 355 355 355 354 354 353 353 352 352 351 351 349 349 349 348 348 349 349 347 346 347 347 346 347 347 347 347 346 346 346 345 344 343 343 343 342 342 341 339 338 337 338 338 337 336 335 335 332 331
358 358 359 359 360 360 360 359 357 356 357 359 359 359 359 359 360 360 359 359 358 358 358 357 356 356 356 355 355 354 353 352 352 351 350 349 348 348 348 348 348 349 350 349 348 348 348 347 347 347 347 347 347 346 346 345 345 344 343 343 342 341 341 340 339 338 338 338 338 337 336 336 334 332
358 357 357 358 359 360 360 358 356 355 356 357 358 359 359 359 359 360 360 360 359 359 358 357 357 356 356 356 355 354 353 352 351 348 346 346 347 347 347 347 348 348 349 349 348 348 348 347 348 347 346 346 346 346 345 345 345 344 344 343 343 342 341 341 340 339 338 337 338 337 336 336 335 333
357 356 355 355 356 358 358 356 355 355 356 357 358 359 359 359 360 360 360 359 359 359 358 357 357 357 355 353 352 352 351 351 350 347 345 345 346 346 346 347 347 347 347 347 347 347 347 346 347 347 346 346 346 345 345 345 344 345 344 343 343 342 342 341 340 339 338 337 337 337 337 337 336 333
356 355 354 353 353 354 354 353 353 355 355 356 358 358 359 359 359 360 360 359 358 358 357 357 356 354 352 350 350 348 346 344 344 343 341 343 345 345 345 345 345 345 344 344 346 346 346 345 346 347 347 346 345 344 344 345 345 345 345 344 343 343 342 341 340 339 339 337 337 337 337 337 336 333
357 357 356 355 353 352 352 352 352 354 354 355 356 357 358 358 358 358 358 357 356 356 354 353 350 348 347 345 343 341 339 337 338 338 339 342 343 343 342 342 343 342 342 342 344 345 345 344 344 345 345 345 345 344 344 345 345 345 345 345 344 343 342 341 339 339 339 338 337 337 336 337 336 333
357 358 358 357 354 352 353 353 353 354 354 354 355 356 357 357 357 356 354 351 350 349 346 343 342 341 338 337 336 338 338 338 340 341 342 343 343 342 342 342 341 341 341 341 341 342 343 342 342 343 343 344 344 344 344 344 345 345 345 345 344 343 342 341 340 339 339 338 337 336 335 335 336 334
357 357 358 357 354 354 354 354 354 354 355 355 356 355 356 354 350 348 349 349 347 344 337 334 334 333 333 336 339 340 341 341 341 339 338 338 339 340 340 340 340 340 340 339 339 340 342 341 341 342 342 343 343 343 343 344 344 345 345 345 344 343 342 342 341 340 339 337 336 336 335 333 334 334
358 358 358 357 356 355 354 354 355 355 356 357 357 356 355 350 344 341 342 340 339 337 336 335 337 337 338 341 343 342 340 338 335 332 330 331 334 337 337 337 338 338 338 338 338 339 340 340 339 340 341 341 342 342 343 343 343 344 345 344 343 343 342 342 341 340 339 338 337 335 333 331 332 333
357 358 359 358 357 355 355 355 356 356 357 356 355 352 348 342 339 339 339 336 335 338 340 341 342 341 340 339 338 335 332 330 327 325 325 327 331 335 336 336 336 336 336 336 337 337 338 338 338 338 339 340 341 341 341 341 341 342 343 343 343 343 342 342 341 340 340 338 335 332 330 330 330 330
356 357 358 357 356 355 355 356 356 356 355 353 348 342 336 333 335 338 339 337 338 341 341 340 340 338 334 331 328 326 325 324 324 326 329 329 330 332 333 334 333 333 333 333 334 334 335 335 336 336 337 338 339 339 339 340 340 340 341 342 343 343 342 341 340 340 339 337 333 331 331 332 331 329
354 355 354 354 354 355 356 356 355 353 349 343 337 332 329 330 333 336 337 337 339 340 338 336 335 333 329 325 323 323 324 323 326 329 331 330 330 330 331 331 330 330 330 331 331 331 332 332 333 333 334 336 337 337 338 338 339 339 339 339 340 341 341 340 339 339 338 335 333 332 332 332 332 330
351 351 351 353 354 354 354 352 350 345 339 333 329 328 327 327 330 330 330 332 334 334 333 332 331 328 326 324 325 326 326 326 328 330 330 330 329 329 329 328 328 329 329 329 329 329 329 330 330 331 332 334 335 336 336 337 337 338 338 338 339 340 340 339 339 339 338 335 333 332 330 329 329 329
348 348 350 351 351 351 349 345 340 336 331 328 327 327 326 326 326 325 326 328 328 328 328 329 329 327 328 328 329 329 329 329 330 330 329 328 328 327 327 327 328 328 328 329 329 329 329 330 330 332 333 334 335 335 335 336 337 337 338 338 338 339 339 339 338 338 337 336 333 331 329 327 327 327
346 345 347 348 348 346 343 337 333 330 328 327 326 326 327 328 328 329 331 331 329 326 327 330 330 330 330 330 330 330 330 330 330 329 328 327 327 327 327 327 327 327 328 329 329 330 330 331 332 333 334 335 335 336 337 337 338 337 338 338 339 340 340 338 337 337 336 334 333 331 329 328 327 326
345 345 345 345 344 341 336 332 331 330 330 331 330 329 330 331 331 331 332 331 328 326 328 330 330 330 330 330 330 330 330 329 329 328 327 327 327 327 327 327 327 327 328 329 329 330 331 332 334 335 335 335 336 336 337 339 340 340 339 338 339 340 340 338 336 336 335 334 332 331 329 328 327 326
345 344 342 340 337 334 332 331 330 329 331 334 334 332 331 330 330 330 329 327 327 328 329 329 329 328 329 330 329 329 329 328 328 328 328 327 327 327 326 326 327 327 328 329 329 330 332 333 334 335 335 336 337 337 337 338 340 341 341 340 339 340 339 337 335 334 334 333 332 331 329 327 326 325
343 341 339 335 333 332 331 330 329 329 330 332 333 333 332 330 330 329 325 322 326 328 328 327 328 329 329 329 328 328 328 328 328 327 327 326 326 326 326 326 327 327 328 329 329 330 331 333 333 334 335 336 336 337 337 338 338 339 340 340 340 340 338 335 333 333 333 332 331 331 329 327 324 323
339 337 335 333 331 330 329 327 326 327 328 329 330 331 331 330 328 325 320 322 326 327 325 326 328 328 327 328 328 328 328 327 327 326 326 326 326 326 326 326 326 327 327 328 329 329 329 329 329 330 332 333 334 334 334 336 337 336 336 338 339 339 337 333 332 332 332 331 331 331 329 326 323 322
335 332 331 330 329 329 327 327 327 328 328 329 329 330 329 329 326 322 322 325 327 327 326 327 327 326 326 327 328 328 327 327 326 326 326 326 326 326 325 326 326 326 327 328 328 327 327 326 326 327 327 329 331 330 331 333 334 331 331 333 335 337 336 333 331 330 329 328 328 328 326 324 321 319
330 329 329 329 329 329 328 328 329 330 330 329 330 330 329 329 328 326 325 325 325 326 327 327 325 325 327 327 327 327 327 327 326 326 326 326 326 325 325 325 325 325 326 327 326 326 326 325 325 325 325 326 328 328 329 330 328 323 323 326 329 332 333 332 330 327 325 323 323 322 320 319 318 317
330 329 329 330 330 329 328 326 327 329 329 329 328 328 327 328 328 328 326 324 323 325 328 327 325 326 327 327 326 326 327 327 327 327 326 326 325 325 324 324 325 325 325 326 326 325 325 324 324 324 324 325 326 326 327 326 323 319 318 320 323 326 329 329 327 323 320 319 319 318 316 316 316 316
330 330 330 330 330 330 329 328 328 328 328 327 326 325 326 326 326 325 323 320 320 324 327 327 326 326 326 326 326 326 326 327 327 327 327 326 326 325 324 324 325 325 325 325 325 324 324 324 323 323 323 324 324 323 322 321 319 317 316 316 317 321 324 324 323 320 318 317 317 316 315 315 315 315
331 331 331 331 330 330 330 329 328 328 327 327 326 326 326 326 325 323 322 320 320 323 327 327 326 326 326 326 325 326 326 326 326 326 326 325 325 325 325 325 325 325 325 325 324 324 323 323 323 323 323 322 321 321 319 318 317 316 315 314 314 316 318 319 318 317 316 316 316 315 315 315 315 315
331 331 330 330 330 329 328 328 327 327 326 326 326 326 326 326 326 325 325 324 323 324 326 326 325 326 326 325 325 326 325 324 325 326 326 325 324 324 324 324 325 325 325 324 324 323 323 323 322 322 321 321 320 319 318 317 316 315 315 314 314 314 314 315 315 315 315 315 315 315 314 314 315 315
329 329 328 328 328 327 326 326 326 326 325 325 325 325 325 326 326 326 325 325 324 324 323 323 324 326 326 326 326 326 324 323 324 325 325 325 325 324 324 324 325 325 324 324 324 323 323 322 322 321 321 320 320 319 318 317 316 315 315 315 314 314 313 312 313 313 313 313 313 313 314 314 315 314
326 326 325 325 324 324 324 324 324 324 324 324 324 325 325 325 325 325 325 324 324 323 323 324 325 326 326 325 326 325 324 324 324 324 324 324 324 324 324 324 324 324 324 324 323 323 322 322 321 321 320 319 319 318 318 317 316 315 315 315 315 314 313 311 311 311 311 311 311 311 312 312 313 313
Wind_Speed
12 12 13 14 14 14 14 14 13 13 13 13 12 11 9 7 6 5 5 6 6 5 5 5 5 3 2 3 5 7 10 11 14 17 18 20 21 21 20 20 20 21 20 20 20 20 20 20 20 20 21 22 22 22 22 22 22 22 21 21 20 20 19 18 18 18 17 17 16 15 13 12 12 12
11 13 14 14 15 15 15 15 14 14 14 13 14 13 12 11 9 7 6 7 8 8 7 6 5 5 6 10 13 14 14 13 13 16 18 20 21 21 22 22 23 24 24 24 24 24 24 23 23 23 23 24 24 24 24 24 24 24 23 23 22 22 21 20 19 19 19 18 18 16 15 14 13 13
11 14 15 16 16 16 16 15 14 15 15 14 15 15 15 14 13 10 8 8 9 8 7 6 8 12 17 20 22 22 21 19 16 16 18 20 20 21 23 24 24 26 26 27 27 27 27 27 27 27 26 26 26 26 26 26 26 26 25 25 24 23 22 21 21 21 20 20 19 18 16 16 15 14
12 15 17 18 18 17 17 16 16 16 16 16 16 15 16 16 15 13 10 10 13 13 13 14 14 16 20 24 25 25 25 24 21 19 20 21 21 22 24 25 25 26 27 28 29 30 30 31 31 30 30 29 29 29 29 29 28 28 28 27 26 25 24 23 22 22 22 21 20 19 18 18 16 15
13 13 15 18 19 19 19 18 17 17 17 17 17 17 17 16 15 14 12 12 16 18 17 20 21 21 23 25 27 27 26 25 24 22 22 22 23 24 26 26 27 27 27 28 29 30 31 32 33 33 33 33 32 31 31 31 31 30 30 29 29 28 27 26 25 24 23 23 22 21 20 19 18 16
14 13 13 15 17 19 20 20 18 16 16 16 15 16 16 14 14 15 15 13 14 18 18 18 22 25 26 27 27 27 26 25 24 24 25 26 26 27 28 29 30 30 29 29 29 30 31 32 34 34 35 36 36 35 34 33 33 33 32 32 31 31 30 29 27 26 25 25 24 23 21 21 20 17
16 15 14 15 14 14 18 20 19 17 17 16 16 16 16 15 14 15 17 16 15 18 20 18 18 19 21 25 27 27 27 27 26 26 28 28 29 30 31 32 33 34 33 32 32 32 32 33 34 35 36 37 38 39 38 37 36 35 35 34 34 34 33 32 31 29 28 27 26 25 23 22 21 19
18 17 17 16 14 12 15 18 18 16 17 17 18 18 18 18 17 16 19 21 19 19 20 21 21 20 22 26 27 26 27 28 28 28 29 30 31 32 33 34 36 36 35 34 34 34 34 35 36 36 37 38 39 40 41 41 40 38 37 37 36 36 35 34 33 32 30 29 28 27 25 24 23 20
21 21 20 18 16 14 15 16 15 14 14 16 18 19 19 19 18 18 20 23 23 21 21 24 24 23 23 26 27 28 27 26 26 27 30 32 32 34 34 34 36 36 35 34 34 34 35 36 37 38 39 39 40 40 41 43 43 42 40 39 38 37 37 36 35 34 33 31 30 29 27 25 24 22
24 24 23 20 18 18 17 16 15 14 13 14 16 19 20 18 17 17 19 22 23 21 21 23 23 21 20 20 24 28 28 25 24 25 29 31 32 34 35 35 36 35 34 33 33 34 34 35 36 37 39 40 41 41 42 43 44 44 43 41 39 39 38 37 36 35 34 33 32 31 29 27 26 24
23 23 23 21 20 21 21 19 18 16 15 14 16 17 18 17 15 16 17 19 20 19 19 19 19 19 18 17 21 26 27 26 26 27 28 29 32 34 35 36 35 32 32 34 35 36 35 35 36 36 37 39 39 41 42 43 44 45 46 44 41 40 39 38 38 36 36 35 34 33 31 28 27 25
23 23 21 20 20 21 24 23 21 19 17 15 14 14 14 14 15 16 16 17 18 18 17 18 18 18 17 18 22 26 25 24 27 30 28 28 33 35 35 36 33 30 31 34 36 36 35 36 37 38 39 39 39 40 41 42 44 45 46 46 44 42 41 39 39 38 37 37 36 35 33 30 28 27
24 24 22 20 20 21 24 25 24 23 21 18 17 16 14 13 15 17 18 18 19 19 18 17 17 18 18 19 21 25 26 26 31 32 25 23 28 32 34 37 35 31 30 32 34 34 32 33 36 37 39 39 37 38 40 41 42 44 45 46 46 45 43 42 41 40 39 39 38 37 35 32 30 28
24 23 22 22 23 24 26 27 26 25 24 23 23 22 19 17 17 18 19 19 20 21 20 18 16 17 19 20 21 26 30 32 32 26 16 16 26 30 31 34 33 27 25 28 33 35 33 31 33 35 38 39 36 36 39 40 40 41 43 44 46 46 46 45 44 43 41 40 39 39 37 34 32 30
23 22 22 22 23 25 27 27 26 25 25 24 24 25 24 22 21 21 21 22 23 23 22 21 19 19 20 23 27 30 30 29 27 20 14 18 28 29 23 23 23 20 19 22 28 37 39 33 32 37 39 39 38 38 40 41 41 40 41 42 43 45 47 48 47 45 42 41 41 40 39 36 34 31
23 22 21 20 20 21 23 24 23 22 23 23 24 25 25 25 24 24 24 25 25 25 24 24 25 24 25 28 32 30 24 23 23 19 14 19 29 32 24 22 25 25 22 19 22 34 40 32 29 38 43 41 41 43 44 44 42 41 40 41 42 43 45 48 49 48 46 43 42 42 41 39 36 33
23 22 21 20 20 20 21 22 22 22 22 22 24 24 24 25 25 25 26 26 27 29 30 30 31 31 30 30 26 20 19 22 24 21 15 16 24 30 29 29 33 33 28 23 22 30 37 29 24 35 46 45 44 47 48 46 45 43 42 42 42 42 43 45 48 49 49 46 44 44 43 41 38 36
24 23 22 22 22 21 19 19 18 20 20 19 19 20 21 22 21 22 24 25 27 30 33 35 37 36 35 34 26 21 23 27 30 30 26 22 24 30 35 38 40 38 33 28 26 30 35 29 23 30 40 41 39 44 49 46 45 45 44 43 43 42 43 43 44 47 50 49 46 45 45 43 40 38
25 25 24 24 24 22 20 19 18 19 18 16 16 18 19 20 18 18 22 24 25 28 31 34 36 37 37 37 34 31 30 29 30 33 33 29 27 31 37 40 43 45 37 24 21 28 32 28 25 30 35 32 31 37 44 46 44 44 45 45 45 43 43 43 44 45 47 50 48 46 45 44 42 40
27 27 26 25 25 24 22 22 24 24 22 18 16 18 20 20 18 18 21 24 26 29 31 33 35 36 37 37 36 35 32 29 29 31 31 29 27 28 31 31 34 44 45 29 19 27 32 27 27 32 32 30 29 33 37 40 42 44 45 45 44 44 43 42 44 44 45 49 50 48 46 46 44 42
28 29 29 28 26 24 23 24 26 26 24 20 18 18 20 21 20 18 20 24 28 30 33 33 33 35 36 36 36 35 33 31 32 31 29 28 27 26 25 24 24 33 42 36 24 26 33 30 29 32 32 31 32 32 32 33 35 40 44 44 42 42 42 43 44 44 45 47 51 51 48 47 45 43
31 31 32 30 29 27 26 27 27 25 23 20 17 17 20 22 22 19 18 22 28 32 34 33 32 34 35 34 33 31 29 28 29 29 30 29 25 24 25 26 26 28 35 34 26 26 32 32 29 31 31 31 33 33 33 32 31 35 40 42 40 39 40 42 43 43 44 47 50 52 50 48 46 45
30 32 33 33 32 31 30 29 28 26 24 20 17 16 18 21 24 22 19 22 29 32 32 31 31 32 31 29 29 27 25 25 25 26 29 27 22 24 28 29 25 22 24 25 21 22 28 28 27 28 25 22 25 29 30 31 31 33 36 38 39 39 39 40 40 40 42 46 48 51 52 50 48 47
26 27 28 30 31 31 29 28 27 26 25 23 19 16 18 22 25 24 21 22 26 27 27 27 27 26 26 25 25 25 24 24 22 21 22 20 19 22 27 28 24 22 23 23 21 23 27 28 29 29 25 21 23 27 29 30 30 30 30 30 33 34 35 36 38 39 41 44 46 50 53 53 51 51
24 22 22 26 28 28 26 25 24 22 21 21 20 18 19 21 21 19 17 17 19 21 20 18 18 19 20 21 21 21 20 18 16 15 16 16 16 20 24 27 27 28 29 27 24 26 29 30 30 31 29 28 30 33 33 32 31 30 29 27 28 29 30 32 35 37 40 43 45 48 53 55 53 52
23 21 22 25 26 26 24 23 22 18 15 15 16 18 20 18 13 11 12 13 14 15 14 13 14 16 17 17 16 15 14 13 12 15 16 17 17 19 23 26 28 29 29 28 27 27 30 31 32 30 28 29 32 34 32 31 30 28 27 28 28 28 29 30 32 35 38 43 46 48 51 54 53 53
22 22 22 23 24 24 22 20 17 14 12 12 12 13 14 13 12 13 14 12 9 10 11 12 13 13 12 12 12 11 12 13 15 20 24 24 21 21 23 26 28 31 32 31 30 29 30 32 32 30 29 31 31 28 26 28 28 26 26 30 29 26 26 29 32 33 35 40 45 46 48 50 52 53
21 20 20 21 22 21 18 15 13 11 10 10 10 9 10 12 16 22 25 19 11 10 11 11 10 10 9 10 11 13 15 18 22 25 27 28 24 21 22 24 26 28 30 30 29 28 29 31 31 29 29 30 29 25 23 26 27 25 26 29 26 25 27 30 33 34 35 38 42 43 46 49 52 54
21 21 21 21 19 17 14 11 10 9 9 8 9 10 12 15 17 20 22 17 12 10 9 8 7 8 10 12 14 18 20 22 24 25 25 27 26 23 21 23 25 25 25 26 27 26 26 27 28 28 27 28 30 29 28 28 28 27 28 28 24 24 28 30 33 36 37 38 40 42 47 51 54 56
24 23 22 19 16 13 11 10 9 9 9 9 11 14 17 18 16 15 15 14 11 9 6 5 6 8 10 12 15 17 19 21 22 21 21 22 24 23 22 24 26 25 23 24 25 25 25 25 26 28 28 27 29 31 32 31 30 28 30 31 27 22 23 27 30 34 38 39 39 42 47 50 53 56
26 21 17 14 12 11 10 9 9 10 11 13 16 17 17 17 16 15 14 12 9 6 5 4 5 6 9 11 13 15 18 19 19 17 16 17 19 21 22 23 26 27 26 25 24 24 25 26 26 28 29 29 30 31 32 33 32 29 30 32 29 24 23 25 27 31 37 37 33 35 41 45 48 51
22 17 15 12 11 11 11 12 12 13 15 15 16 16 16 15 15 13 12 10 8 6 4 3 2 4 6 8 9 12 14 16 15 13 14 16 18 19 21 22 24 26 27 28 27 24 24 25 26 26 26 29 31 33 33 34 33 31 31 31 30 28 28 28 29 31 33 32 29 30 35 39 43 48
15 14 16 14 13 14 15 16 17 16 16 15 14 14 14 14 12 11 9 8 6 5 3 2 2 3 5 6 8 9 11 13 13 12 13 15 17 19 20 21 23 25 27 29 28 25 24 24 24 23 23 25 28 31 31 30 29 31 32 30 27 26 27 29 32 32 31 30 29 29 31 33 38 46
13 14 17 17 16 18 18 18 17 15 14 13 12 12 13 11 9 8 7 5 4 4 3 2 1 2 4 6 8 8 10 12 13 12 12 15 17 19 20 21 22 24 26 27 27 26 25 24 22 21 23 25 26 28 28 25 24 28 31 31 28 26 26 29 31 31 31 31 31 29 29 30 33 40
14 16 19 19 18 19 19 17 17 15 12 11 10 10 10 9 8 7 6 5 4 3 2 1 2 4 5 7 8 8 9 11 12 12 13 15 17 19 20 20 22 24 26 26 27 27 27 26 26 25 24 22 21 24 25 21 20 22 24 25 26 25 23 26 30 29 28 28 29 27 26 25 27 32
17 19 21 21 19 18 17 16 15 13 11 11 10 9 8 7 6 6 6 7 5 3 2 3 4 5 5 6 8 8 8 10 11 13 15 16 17 19 20 20 22 24 25 25 27 27 26 26 28 26 19 13 12 15 18 18 17 17 19 21 23 21 17 20 24 24 25 27 28 26 24 22 23 29
21 21 22 21 20 18 17 16 14 12 12 12 10 8 7 7 6 6 8 8 5 3 5 5 4 4 5 7 7 7 8 10 11 13 14 16 17 19 20 21 21 22 24 24 25 26 25 24 25 23 15 10 9 11 15 20 21 19 17 20 22 18 13 15 16 18 22 25 25 24 23 21 23 30
24 22 21 20 18 17 15 14 12 10 11 11 9 7 7 7 6 7 7 6 4 4 5 4 4 5 5 6 7 7 8 10 10 12 13 15 17 18 19 20 20 21 23 23 23 25 25 24 25 24 19 12 9 9 13 19 22 20 17 18 21 18 15 16 14 14 16 17 16 16 17 19 21 28
20 19 19 18 16 15 14 13 11 10 9 9 7 6 6 6 5 5 5 5 5 5 4 3 4 5 5 5 6 7 8 9 9 11 12 14 15 16 17 18 19 21 22 22 23 25 26 28 30 31 26 19 16 18 21 20 18 20 20 17 17 14 13 15 13 11 13 15 17 18 19 21 23 27
15 15 14 14 12 12 13 12 11 10 9 7 6 6 6 5 4 4 4 5 6 5 3 3 5 4 4 6 7 7 8 8 9 10 11 12 12 13 14 15 17 18 20 21 22 24 27 31 34 33 29 25 24 25 22 16 14 20 24 21 15 9 7 11 13 13 15 19 24 26 26 27 28 29
10 10 9 8 8 8 8 8 7 7 7 6 6 5 5 4 4 4 5 6 7 6 3 3 4 4 5 6 7 7 8 9 10 10 11 12 11 12 13 14 14 16 18 19 21 24 26 29 30 28 24 23 21 18 13 10 12 17 22 25 21 12 3 7 14 17 19 23 28 28 25 25 27 28
8 8 7 7 7 6 5 5 4 4 4 3 3 3 2 2 4 5 5 6 7 5 3 3 4 5 5 6 7 7 8 9 10 10 11 12 12 12 14 14 15 16 16 16 19 23 25 25 25 23 21 21 20 16 11 9 11 14 19 24 26 23 17 15 18 22 23 24 27 25 22 22 21 19
9 8 7 6 5 5 4 4 3 3 2 2 2 2 2 3 4 5 4 4 4 4 3 3 4 5 6 7 7 7 8 9 10 10 10 11 11 12 13 15 15 15 14 14 16 19 21 22 22 21 21 21 20 16 13 13 15 16 17 20 24 27 26 24 23 24 23 21 20 20 20 21 19 17
9 8 6 6 5 5 4 3 3 2 2 2 3 3 3 3 3 3 3 3 3 4 4 4 4 5 6 8 8 8 8 9 9 9 9 10 10 11 12 13 14 13 13 13 14 16 16 17 19 19 19 19 18 17 16 16 16 17 18 19 21 24 26 27 27 26 25 23 20 18 19 22 24 26
9 8 7 6 6 5 5 4 3 3 3 3 3 3 3 3 3 3 2 3 4 5 5 5 5 5 7 9 9 8 9 9 9 8 9 10 10 10 11 11 12 12 12 11 12 12 12 13 15 16 17 16 16 16 16 16 16 17 18 19 19 21 24 27 28 28 28 26 21 17 15 17 22 26
Wind_Direction
251 256 260 263 262 262 265 267 270 273 274 272 266 258 255 260 277 296 296 291 291 273 258 279 295 298 330 320 299 288 280 274 269 265 263 263 264 265 264 263 262 262 260 259 257 256 255 255 255 254 253 253 253 253 254 254 254 255 257 258 261 263 265 269 273 277 280 282 281 275 270 272 279 284
249 255 260 264 265 265 267 268 269 273 275 273 269 264 257 251 253 266 283 292 287 277 274 273 270 279 300 307 307 304 300 294 283 274 270 268 269 270 268 266 264 263 262 261 259 258 256 256 256 255 255 254 254 254 254 254 254 254 255 256 258 259 261 264 267 270 273 275 276 273 267 266 271 276
249 257 261 264 266 266 268 267 267 272 276 274 271 267 262 256 251 251 262 280 278 272 276 276 276 287 295 300 304 304 303 302 295 286 281 279 278 274 270 268 265 263 263 262 261 260 258 257 256 256 255 255 255 255 255 255 254 255 255 255 256 257 259 260 262 264 266 268 270 269 264 261 265 270
249 258 262 264 266 267 269 269 269 272 275 275 272 269 266 261 256 250 246 261 271 270 274 279 283 287 293 298 300 300 301 302 300 295 290 288 285 279 275 274 271 268 266 264 262 261 260 258 257 256 256 255 256 256 255 255 255 255 255 255 255 256 257 259 259 260 261 262 262 263 261 257 259 264
246 254 258 262 266 268 268 269 269 270 273 275 272 270 267 260 257 254 244 254 274 278 278 283 286 288 291 295 297 298 299 300 301 299 294 291 287 283 281 281 279 276 273 270 268 266 263 261 259 257 256 255 255 255 255 254 254 254 254 254 253 254 255 256 257 257 257 256 255 256 255 252 254 259
245 249 252 258 264 266 267 268 265 264 267 267 266 266 266 261 259 262 258 255 271 281 283 285 288 289 291 293 294 296 296 296 296 295 293 291 288 285 284 282 282 282 280 278 276 273 270 266 263 260 258 256 255 254 253 253 252 251 251 250 250 249 250 251 253 253 253 252 250 249 249 248 248 253
250 249 249 253 258 260 265 268 266 263 263 263 263 265 265 264 262 265 268 264 262 274 282 282 282 284 286 288 291 294 294 294 292 291 290 290 287 286 285 282 282 283 282 281 280 278 276 273 269 265 260 257 255 253 252 252 251 250 249 248 247 247 247 248 248 248 248 248 246 243 244 244 244 247
255 252 252 255 256 253 259 267 267 263 263 266 269 270 270 271 268 266 269 268 263 266 274 277 276 278 281 286 290 292 292 294 294 292 292 290 287 286 286 283 282 284 283 282 281 279 277 276 274 271 266 261 257 254 252 251 250 250 248 248 247 246 246 246 246 245 245 244 243 240 239 240 241 242
260 259 258 257 256 253 254 262 263 259 261 266 271 274 273 273 271 268 269 270 266 260 264 273 277 279 282 287 291 293 293 293 293 293 294 293 290 289 288 284 282 285 286 285 283 281 279 276 274 273 270 267 263 258 254 252 250 249 248 247 247 246 246 246 246 245 244 243 241 238 236 237 238 238
263 264 263 260 258 257 255 256 260 261 259 259 266 273 275 273 271 268 267 268 265 258 260 271 278 282 284 285 289 293 294 291 288 289 291 290 289 288 289 286 284 285 287 288 287 284 280 277 275 273 272 270 268 265 261 256 253 250 249 248 247 247 246 246 247 246 244 242 240 236 234 234 235 235
261 263 263 261 260 261 262 261 262 264 261 258 262 269 273 271 267 265 263 261 260 259 261 270 277 282 285 283 285 291 293 290 288 286 284 284 285 287 287 287 286 286 288 290 289 286 283 280 278 276 274 273 272 270 267 263 258 253 250 249 248 247 247 246 247 246 244 242 239 236 233 232 233 234
259 260 260 258 257 262 267 269 268 266 263 261 263 265 266 265 263 263 265 265 266 267 269 274 278 280 281 280 283 290 291 286 285 285 280 279 285 289 288 287 288 289 289 289 289 287 286 285 284 281 279 277 275 273 270 267 263 259 254 250 248 247 246 245 245 245 243 241 239 236 233 231 231 232
259 260 258 255 255 259 266 273 275 274 271 268 267 265 265 267 268 269 269 271 276 278 277 278 279 280 281 276 277 283 283 281 284 286 282 281 288 293 291 288 290 292 291 291 291 289 287 287 288 285 281 281 280 277 274 270 266 263 258 253 249 246 246 245 244 243 242 240 238 236 233 231 230 231
258 259 258 258 260 265 270 275 277 278 278 276 274 271 267 265 268 273 276 279 281 282 282 282 280 278 278 272 271 276 280 282 285 288 292 297 296 294 291 290 292 292 293 291 291 291 288 285 287 286 282 282 283 280 277 275 271 267 263 258 253 248 246 244 244 242 241 240 238 236 233 231 230 231
256 257 257 260 263 268 272 275 277 279 280 279 279 279 276 270 266 268 273 277 281 281 282 284 282 272 267 267 271 275 279 283 286 291 300 299 293 290 288 291 294 296 295 289 288 292 292 286 284 285 282 280 279 278 277 276 275 273 269 265 259 254 249 245 243 242 240 239 237 234 233 230 229 229
253 254 255 256 258 261 266 270 274 277 280 282 282 283 282 278 273 269 268 269 272 273 274 277 276 267 261 266 271 274 279 288 293 290 284 284 287 286 283 283 287 291 295 292 285 288 290 286 280 282 282 279 277 278 277 275 274 272 270 268 264 259 254 248 244 241 239 238 236 233 232 230 228 228
250 251 253 254 254 257 261 265 267 269 274 280 283 284 283 280 277 274 271 269 268 268 265 264 265 266 266 268 271 275 280 288 291 286 276 277 285 285 280 279 283 286 290 289 282 280 283 281 271 273 279 280 276 277 278 276 273 271 268 266 264 261 258 253 247 243 239 237 235 233 230 229 226 226
249 250 251 254 256 256 257 259 261 263 266 269 273 279 280 278 276 275 274 272 268 267 265 262 263 269 273 271 272 277 279 280 282 282 281 281 282 283 283 283 284 286 284 278 274 275 278 276 265 265 274 277 274 277 280 278 274 272 269 266 264 261 258 255 250 245 240 237 235 233 230 228 226 224
250 251 252 254 257 256 255 255 254 257 259 259 264 271 273 273 271 268 270 273 272 272 274 273 272 276 280 280 280 281 279 279 281 282 283 284 283 282 285 287 289 291 290 277 263 272 277 277 271 268 271 272 269 273 280 280 278 275 271 267 265 261 259 257 252 247 241 237 235 233 230 228 225 224
251 253 253 253 256 257 257 258 261 264 262 257 258 267 271 272 271 266 268 275 279 280 284 285 284 286 290 293 293 290 284 280 281 281 282 282 279 277 280 283 286 290 292 286 273 278 284 284 282 279 278 276 272 270 273 277 278 277 273 269 265 262 260 258 254 249 243 238 234 232 230 228 225 223
252 254 254 254 256 257 257 260 265 268 265 255 251 258 266 271 274 274 273 275 280 283 286 288 289 293 297 299 299 297 293 288 285 280 275 275 275 274 274 274 275 281 286 287 286 284 285 286 287 286 285 282 277 273 270 270 272 274 273 269 266 262 260 258 254 250 245 239 234 231 229 227 224 221
253 256 258 257 256 257 260 264 267 267 263 255 247 250 262 270 272 272 271 273 277 282 285 288 291 293 295 297 298 299 298 295 289 280 274 276 277 272 271 273 277 280 281 284 285 280 280 284 284 284 287 283 276 272 270 267 266 266 267 267 266 262 258 256 254 251 248 243 236 231 228 226 222 218
253 257 260 261 260 261 263 267 268 267 262 254 246 246 256 264 267 267 266 267 273 278 281 285 289 291 294 296 297 297 298 297 294 288 285 284 276 271 274 277 281 283 282 284 283 275 278 284 282 282 287 285 278 275 271 268 264 259 259 263 264 263 261 256 252 250 249 245 239 233 229 225 220 215
250 253 256 261 264 266 268 269 270 269 264 259 255 249 248 255 262 266 267 264 265 270 275 280 285 289 294 297 296 297 299 300 299 294 288 281 271 270 275 277 278 277 278 284 285 277 278 283 282 281 281 280 281 281 276 273 270 263 260 259 259 263 266 259 249 247 248 245 240 235 230 225 219 214
247 249 251 257 265 269 271 272 273 272 268 263 257 249 248 249 249 253 260 264 264 266 271 279 283 285 288 290 292 295 297 298 297 291 282 275 270 270 272 275 276 276 276 279 280 277 277 278 279 279 277 273 275 279 279 277 273 268 264 260 255 257 263 260 251 248 248 243 238 234 230 225 220 214
244 246 249 257 266 270 270 272 274 272 268 259 249 245 243 233 216 218 243 259 267 269 274 282 284 282 283 286 289 291 292 292 293 292 290 286 278 271 269 271 272 274 278 280 278 275 274 275 275 276 276 274 275 278 280 278 276 272 265 259 256 253 252 252 250 247 245 242 237 232 229 225 221 216
242 246 250 256 263 267 268 270 268 263 256 242 231 227 221 203 175 176 197 213 234 253 261 269 272 274 281 285 286 288 293 301 308 312 313 311 300 284 275 273 271 273 278 281 279 276 274 274 274 275 276 279 280 281 280 280 282 280 269 263 262 256 248 246 245 243 243 242 238 232 225 223 221 217
245 247 249 253 259 264 264 260 251 240 229 215 204 191 182 177 170 174 185 199 220 238 248 258 264 274 288 295 302 311 317 322 325 326 325 322 312 295 283 280 280 280 281 282 282 280 276 275 277 278 277 278 280 281 283 285 287 284 279 275 267 252 244 242 240 239 239 237 233 226 219 217 218 215
244 246 248 251 256 257 250 238 226 215 204 191 178 162 154 157 164 171 180 194 211 224 239 260 276 292 308 317 324 327 328 331 332 330 325 322 318 310 302 297 294 291 289 288 288 287 283 280 281 283 281 280 281 282 285 287 287 285 286 285 273 254 244 239 234 233 232 227 222 221 219 217 215 211
241 245 247 248 247 241 230 219 209 197 185 167 155 150 149 152 160 166 170 178 191 207 226 256 277 296 317 329 333 335 335 335 334 330 323 320 319 318 316 311 306 303 301 298 296 293 290 286 285 287 286 284 283 285 286 287 289 290 289 287 280 266 248 233 227 227 225 220 216 218 220 218 215 210
237 240 240 237 230 220 208 200 192 177 163 153 148 147 146 148 152 154 153 158 169 179 190 225 269 303 328 335 336 337 336 332 329 325 320 317 316 317 317 312 309 310 309 307 304 300 295 292 290 289 288 285 284 284 286 288 289 291 291 287 280 270 253 236 225 222 222 219 215 215 215 214 211 207
227 225 221 213 208 204 192 179 172 164 157 151 146 142 138 135 134 131 129 134 142 147 162 198 263 317 325 321 319 323 324 321 319 321 321 317 315 318 319 315 312 314 315 315 315 312 306 301 297 291 288 287 289 290 291 290 289 287 288 286 280 272 261 243 226 220 219 214 210 211 211 210 207 204
199 198 200 196 193 192 182 169 162 158 152 146 141 137 133 129 127 128 130 139 141 129 134 173 217 286 299 307 312 314 316 315 315 320 327 327 324 324 324 320 317 317 318 317 317 318 318 314 308 299 294 295 297 295 292 290 291 290 288 288 283 274 262 244 229 220 213 205 202 204 206 207 206 203
177 181 187 189 189 183 173 163 160 156 149 144 140 137 134 130 130 134 135 137 126 104 107 153 236 316 324 329 328 322 319 319 319 324 333 338 337 334 330 326 323 323 322 320 320 322 324 322 316 307 303 302 301 297 290 284 284 288 290 290 285 276 262 246 231 218 207 202 200 198 197 201 204 202
171 175 178 178 177 173 168 166 164 157 150 148 143 139 135 127 123 125 115 101 99 95 100 104 21 2 347 335 330 328 324 323 326 333 341 345 346 342 337 331 328 327 327 326 327 329 327 326 325 320 312 307 303 302 300 292 282 284 291 292 289 281 265 242 226 214 205 200 197 193 191 194 197 198
165 167 169 166 164 165 166 165 162 154 148 146 142 140 137 125 120 117 93 82 91 93 66 51 25 2 346 333 328 329 328 329 337 347 351 351 349 345 341 336 331 331 331 331 334 336 334 334 335 332 325 319 313 310 313 312 306 300 296 292 291 287 264 234 220 210 200 195 193 191 188 187 186 187
158 158 160 158 158 162 162 159 157 153 148 143 137 135 135 126 116 101 82 78 83 68 52 47 24 357 348 339 333 335 342 344 346 350 353 355 353 349 344 339 334 334 334 333 336 341 341 341 342 341 335 328 322 317 315 318 324 327 315 300 297 289 254 220 211 205 199 197 197 193 189 182 177 178
152 152 152 150 151 155 156 157 157 154 148 145 140 136 133 125 110 92 80 79 77 59 51 43 19 2 354 346 341 345 351 350 347 348 353 356 355 351 346 341 338 337 335 335 338 343 344 344 344 342 336 328 322 324 320 319 327 338 330 308 298 284 242 212 202 196 190 187 186 185 183 175 168 170
144 146 148 147 149 154 156 157 157 153 151 150 145 139 132 126 117 102 86 77 69 60 53 33 17 6 353 347 347 347 347 347 348 352 355 355 353 350 345 341 340 340 339 339 341 343 345 346 344 339 333 323 312 311 313 315 330 347 346 329 309 283 236 208 192 172 159 155 151 147 146 145 147 154
138 143 144 144 147 152 156 157 157 156 156 155 151 148 139 128 121 110 89 76 65 55 39 18 10 2 353 356 357 353 350 349 350 353 352 350 349 348 343 340 342 345 346 344 343 344 345 344 343 340 333 324 318 318 322 330 351 6 10 8 354 321 245 198 174 151 140 142 141 133 129 131 136 145
127 127 128 128 131 140 150 155 158 159 159 155 150 146 141 130 121 106 89 76 65 51 24 359 358 359 2 4 358 352 352 352 351 351 349 346 344 344 343 344 348 352 351 348 346 345 343 341 342 343 341 338 341 350 360 7 11 18 29 36 36 33 55 153 149 139 134 137 136 129 125 130 133 137
110 111 113 117 121 130 141 149 154 157 155 151 144 136 133 126 106 90 74 63 54 40 6 343 355 2 5 7 2 356 355 353 350 347 346 346 347 348 351 356 357 355 354 351 347 346 345 344 347 352 357 1 9 21 30 30 31 37 45 51 56 63 77 101 119 122 124 130 131 128 128 134 134 134
105 107 107 108 111 116 126 137 146 147 145 148 143 126 118 105 85 72 60 46 36 20 353 349 360 4 5 6 1 358 357 354 348 343 343 344 345 348 354 359 359 355 353 351 348 348 351 355 359 5 12 17 25 33 37 40 45 48 50 55 63 70 78 91 104 110 112 117 124 129 135 139 138 139
96 93 90 88 89 91 99 113 126 131 132 133 124 101 89 89 81 72 64 40 16 8 7 4 360 358 359 358 355 354 355 351 343 338 338 338 338 345 353 357 356 355 354 352 351 354 359 4 12 20 26 29 33 39 43 47 51 51 52 56 59 64 71 82 91 97 97 98 105 117 129 135 138 143
87 87 86 93 100 103 104 102 101 98 89 86 86 78 71 76 76 67 60 38 16 10 8 3 355 349 349 351 349 345 342 339 335 332 334 335 336 343 353 357 355 354 354 355 357 0 4 11 20 30 39 45 49 51 53 56 57 58 59 60 58 60 67 76 82 84 81 80 85 95 110 129 141 146